Weather History for Boonville, MO

Change the Weather History Date:

Wednesday, May 16, 2012

  Actual Average Record
Temperature  
Mean Temperature 66 °F -  
Max Temperature 87 °F 74 °F 90 °F (2013)
Min Temperature 56 °F 52 °F 36 °F (2014)
Cooling Degree Days 2    
Growing Degree Days 16 (Base 50)    
Moisture  
Dew Point 47 °F    
Average Humidity 50    
Maximum Humidity 87    
Minimum Humidity 30    
Precipitation  
Precipitation 0.00 in - - ()
Sea Level Pressure  
Sea Level Pressure 30.03 in    
Wind  
Wind Speed 4 mph (NNE)    
Max Wind Speed 9 mph    
Max Gust Speed -    
Visibility 10 miles    
Events      
Averages and records for this station are not official NWS values.
T = Trace of Precipitation, MM = Missing Value Source: NWS Daily Summary

Daily Weather History Graph

Daily Weather History Graph

Search for Another Location

Airport:

Trip Planner

Search our weather history database for the weather conditions in past years. The results will help you decide how hot, cold, wet, or windy it might be!

Date:

Astronomy

May. 16, 2012 Rise Set
Actual Time 5:56 AM CDT 8:17 PM CDT
Civil Twilight 5:26 AM CDT 8:48 PM CDT
Nautical Twilight 4:49 AM CDT 9:25 PM CDT
Astronomical Twilight 4:08 AM CDT 10:06 PM CDT
Moon 3:24 AM CDT (5/16) 4:35 PM CDT (5/16)
Length of Visible Light 15h 21m
Length of Day
14h 21m
Waning Crescent, 16% of the Moon is Illuminated
May 16
Waning Crescent
May 20
New
May 28
First Quarter
Jun 4
Full
Jun 11
Last Quarter

Hourly Weather History & Observations

Time (CDT) Temp. Dew Point Humidity Pressure Visibility Wind Dir Wind Speed Gust Speed Precip Events Conditions
12:15 AM 66.4 °F 50.2 °F 56% 29.98 in 10.0 mi SSW 4.6 mph - N/A   Clear
12:35 AM 66.2 °F 50.0 °F 56% 29.98 in 10.0 mi SSW 3.5 mph - N/A   Clear
12:55 AM 65.7 °F 50.0 °F 57% 29.98 in 10.0 mi SSW 4.6 mph - N/A   Clear
1:15 AM 65.5 °F 50.2 °F 58% 29.98 in 10.0 mi SW 3.5 mph - N/A   Clear
1:35 AM 64.9 °F 50.5 °F 60% 29.98 in 10.0 mi SW 3.5 mph - N/A   Clear
1:55 AM 64.8 °F 50.5 °F 60% 29.98 in 10.0 mi SW 3.5 mph - N/A   Clear
2:15 AM 63.9 °F 50.9 °F 63% 29.99 in 10.0 mi West 3.5 mph - N/A   Clear
2:35 AM 64.0 °F 50.9 °F 62% 29.99 in 10.0 mi Calm Calm - N/A   Clear
2:55 AM 64.6 °F 50.9 °F 61% 29.99 in 10.0 mi Calm Calm - N/A   Clear
3:15 AM 63.1 °F 51.1 °F 65% 29.98 in 10.0 mi South 4.6 mph - N/A   Clear
3:35 AM 59.5 °F 51.8 °F 76% 29.98 in 10.0 mi South 4.6 mph - N/A   Clear
3:55 AM 58.6 °F 52.0 °F 79% 29.98 in 10.0 mi Calm Calm - N/A   Clear
4:15 AM 58.6 °F 52.0 °F 79% 29.98 in 10.0 mi Calm Calm - N/A   Clear
4:35 AM 59.7 °F 52.0 °F 76% 29.99 in 10.0 mi Calm Calm - N/A   Clear
4:55 AM 59.5 °F 51.8 °F 76% 29.99 in 10.0 mi Calm Calm - N/A   Clear
5:15 AM 58.1 °F 52.0 °F 80% 30.00 in 10.0 mi Calm Calm - N/A   Clear
5:35 AM 56.3 °F 52.3 °F 87% 30.00 in 10.0 mi NNW 4.6 mph - N/A   Clear
5:55 AM 56.3 °F 52.2 °F 86% 30.01 in 10.0 mi North 8.1 mph - N/A   Clear
6:35 AM 56.7 °F 50.2 °F 79% 30.02 in 10.0 mi North 5.8 mph - N/A   Clear
6:55 AM 57.4 °F 49.6 °F 75% 30.03 in 10.0 mi North 5.8 mph - N/A   Clear
7:15 AM 58.6 °F 47.7 °F 67% 30.04 in 10.0 mi North 6.9 mph - N/A   Clear
7:35 AM 59.5 °F 46.9 °F 63% 30.05 in 10.0 mi North 6.9 mph - N/A   Clear
7:55 AM 60.8 °F 46.4 °F 59% 30.05 in 10.0 mi North 8.1 mph - N/A   Clear
8:15 AM 62.1 °F 46.0 °F 56% 30.06 in 10.0 mi North 9.2 mph - N/A   Clear
8:35 AM 63.3 °F 46.4 °F 54% 30.06 in 10.0 mi North 6.9 mph - N/A   Clear
8:55 AM 64.6 °F 46.9 °F 53% 30.07 in 10.0 mi North 8.1 mph - N/A   Clear
9:15 AM 66.2 °F 47.3 °F 51% 30.08 in 10.0 mi North 5.8 mph - N/A   Clear
9:35 AM 68.0 °F 47.7 °F 48% 30.08 in 10.0 mi NNE 6.9 mph - N/A   Clear
9:55 AM 68.5 °F 47.3 °F 47% 30.08 in 10.0 mi NNE 6.9 mph - N/A   Clear
10:15 AM 69.6 °F 47.1 °F 45% 30.08 in 10.0 mi NNE 6.9 mph - N/A   Clear
10:35 AM 70.5 °F 48.2 °F 45% 30.08 in 10.0 mi NNE 5.8 mph - N/A   Clear
10:55 AM 71.4 °F 47.1 °F 42% 30.08 in 10.0 mi North 4.6 mph - N/A   Clear
11:15 AM 72.5 °F 47.7 °F 41% 30.08 in 10.0 mi North 5.8 mph - N/A   Clear
11:35 AM 73.6 °F 47.5 °F 39% 30.09 in 10.0 mi North 4.6 mph - N/A   Clear
11:55 AM 74.3 °F 48.2 °F 40% 30.09 in 10.0 mi North 6.9 mph - N/A   Clear
12:15 PM 74.8 °F 46.6 °F 37% 30.08 in 10.0 mi North 4.6 mph - N/A   Clear
12:35 PM 75.2 °F 45.3 °F 34% 30.08 in 10.0 mi North 8.1 mph - N/A   Clear
12:55 PM 75.4 °F 44.2 °F 33% 30.07 in 10.0 mi NNE 4.6 mph - N/A   Clear
1:15 PM 76.1 °F 45.1 °F 33% 30.06 in 10.0 mi NNW 5.8 mph - N/A   Clear
1:35 PM 76.1 °F 43.2 °F 31% 30.06 in 10.0 mi Calm Calm - N/A   Clear
1:55 PM 76.3 °F 43.7 °F 31% 30.06 in 10.0 mi North 5.8 mph - N/A   Clear
2:15 PM 77.0 °F 45.7 °F 33% 30.06 in 10.0 mi North 4.6 mph - N/A   Clear
2:35 PM 77.0 °F 44.1 °F 31% 30.05 in 10.0 mi NNW 5.8 mph - N/A   Clear
2:55 PM 77.4 °F 43.7 °F 30% 30.05 in 10.0 mi North 6.9 mph - N/A   Clear
3:15 PM 77.2 °F 43.3 °F 30% 30.04 in 10.0 mi North 6.9 mph - N/A   Clear
3:35 PM 77.4 °F 44.4 °F 31% 30.04 in 10.0 mi North 6.9 mph - N/A   Clear
3:55 PM 77.5 °F 44.1 °F 30% 30.04 in 10.0 mi NE 3.5 mph - N/A   Clear
4:15 PM 77.9 °F 44.1 °F 30% 30.03 in 10.0 mi NNE 5.8 mph - N/A   Clear
4:35 PM 77.7 °F 43.9 °F 30% 30.03 in 10.0 mi ENE 3.5 mph - N/A   Clear
4:55 PM 77.9 °F 44.8 °F 31% 30.03 in 10.0 mi North 6.9 mph - N/A   Clear
5:15 PM 77.4 °F 44.2 °F 31% 30.03 in 10.0 mi NNW 5.8 mph - N/A   Clear
5:35 PM 77.0 °F 43.9 °F 31% 30.03 in 10.0 mi North 9.2 mph - N/A   Clear
5:55 PM 76.6 °F 44.6 °F 32% 30.03 in 10.0 mi North 4.6 mph - N/A   Clear
6:15 PM 76.1 °F 44.2 °F 32% 30.02 in 10.0 mi NNE 5.8 mph - N/A   Clear
6:35 PM 75.4 °F 44.4 °F 33% 30.02 in 10.0 mi North 5.8 mph - N/A   Clear
6:55 PM 75.0 °F 44.2 °F 33% 30.02 in 10.0 mi NNE 6.9 mph - N/A   Clear
7:15 PM 73.8 °F 45.0 °F 36% 30.03 in 10.0 mi NNE 3.5 mph - N/A   Clear
7:35 PM 72.9 °F 46.2 °F 39% 30.03 in 10.0 mi NNE 3.5 mph - N/A   Clear
7:55 PM 71.6 °F 47.3 °F 42% 30.03 in 10.0 mi Calm Calm - N/A   Clear
8:15 PM 70.5 °F 46.8 °F 43% 30.03 in 10.0 mi Calm Calm - N/A   Clear
8:35 PM 68.7 °F 47.1 °F 46% 30.04 in 10.0 mi Calm Calm - N/A   Clear
9:15 PM 66.7 °F 46.9 °F 49% 30.04 in 10.0 mi NE 3.5 mph - N/A   Clear
9:35 PM 66.9 °F 46.8 °F 48% 30.04 in 10.0 mi ENE 3.5 mph - N/A   Clear
9:55 PM 65.7 °F 47.1 °F 51% 30.05 in 10.0 mi NE 4.6 mph - N/A   Clear
10:15 PM 64.8 °F 47.5 °F 53% 30.05 in 10.0 mi ENE 4.6 mph - N/A   Clear
10:35 PM 63.5 °F 48.0 °F 57% 30.05 in 10.0 mi NE 3.5 mph - N/A   Clear
10:55 PM 62.4 °F 48.4 °F 60% 30.05 in 10.0 mi East 3.5 mph - N/A   Clear
11:15 PM 62.1 °F 48.4 °F 61% 30.05 in 10.0 mi ENE 4.6 mph - N/A   Clear
11:35 PM 61.5 °F 47.3 °F 60% 30.05 in 10.0 mi East 4.6 mph - N/A   Clear
11:55 PM 61.5 °F 46.8 °F 58% 30.05 in 10.0 mi East 4.6 mph - N/A   Clear